Hourly Weather Bolshie Verhi

Today, 4 August, Wednesday

Time Temperature Precipitation Wind Pressure Humidity
00:00 +19°C° 0 mm 2 mps 739 mmHg 90%
01:00 +19°C° 0 mm 2 mps 739 mmHg 90%
02:00 +18°C° 0 mm 2 mps 739 mmHg 90%
03:00 +18°C° 0 mm 2 mps 739 mmHg 90%
04:00 +19°C° 1.4 mm 1 mps 740 mmHg 91%
05:00 +19°C° 1.4 mm 1 mps 740 mmHg 93%
06:00 +19°C° 1.4 mm 1 mps 740 mmHg 94%
07:00 +20°C° 0.6 mm 1 mps 740 mmHg 89%
08:00 +21°C° 0.6 mm 1 mps 740 mmHg 84%
09:00 +22°C° 0.6 mm 1 mps 740 mmHg 79%
10:00 +23°C° 0 mm 1 mps 740 mmHg 72%
11:00 +24°C° 0 mm 2 mps 741 mmHg 66%
12:00 +26°C° 0 mm 3 mps 741 mmHg 59%
13:00 +26°C° 0.7 mm 3 mps 741 mmHg 59%
14:00 +26°C° 0.7 mm 4 mps 741 mmHg 58%
15:00 +26°C° 0.7 mm 4 mps 741 mmHg 58%
16:00 +25°C° 0.1 mm 3 mps 741 mmHg 58%
17:00 +25°C° 0.1 mm 3 mps 741 mmHg 58%
18:00 +25°C° 0.1 mm 2 mps 741 mmHg 58%
19:00 +24°C° 0 mm 3 mps 741 mmHg 58%
20:00 +22°C° 0 mm 3 mps 741 mmHg 59%
21:00 +21°C° 0 mm 3 mps 742 mmHg 59%
22:00 +20°C° 0 mm 3 mps 742 mmHg 60%
23:00 +19°C° 0 mm 3 mps 742 mmHg 61%

Tomorrow, 5 August, Thursday

Time Temperature Precipitation Wind Pressure Humidity
00:00 +19°C° 0 mm 3 mps 742 mmHg 61%
01:00 +18°C° 0 mm 3 mps 742 mmHg 62%
02:00 +18°C° 0 mm 3 mps 742 mmHg 62%
03:00 +17°C° 0 mm 3 mps 742 mmHg 62%
04:00 +17°C° 0 mm 3 mps 743 mmHg 64%
05:00 +17°C° 0 mm 2 mps 743 mmHg 66%
06:00 +17°C° 0 mm 2 mps 743 mmHg 68%
07:00 +19°C° 0 mm 2 mps 743 mmHg 62%
08:00 +20°C° 0 mm 3 mps 743 mmHg 57%
09:00 +22°C° 0 mm 3 mps 743 mmHg 51%
10:00 +24°C° 0 mm 3 mps 743 mmHg 47%
11:00 +25°C° 0 mm 3 mps 743 mmHg 42%
12:00 +26°C° 0 mm 3 mps 743 mmHg 38%
13:00 +26°C° 0 mm 3 mps 743 mmHg 37%
14:00 +26°C° 0 mm 3 mps 743 mmHg 37%
15:00 +27°C° 0 mm 3 mps 744 mmHg 36%
16:00 +26°C° 0 mm 2 mps 743 mmHg 40%
17:00 +26°C° 0 mm 2 mps 743 mmHg 44%
18:00 +25°C° 0 mm 1 mps 743 mmHg 48%
19:00 +24°C° 0 mm 1 mps 743 mmHg 49%
20:00 +22°C° 0 mm 1 mps 743 mmHg 50%
21:00 +21°C° 0 mm 1 mps 743 mmHg 51%
22:00 +20°C° 0 mm 1 mps 743 mmHg 53%
23:00 +20°C° 0 mm 1 mps 743 mmHg 55%

Day after tomorrow, 6 August, Friday

Time Temperature Precipitation Wind Pressure Humidity
00:00 +18°C° 0 mm 2 mps 743 mmHg 57%
01:00 +18°C° 0 mm 2 mps 743 mmHg 59%
02:00 +18°C° 0 mm 2 mps 743 mmHg 60%
03:00 +17°C° 0 mm 3 mps 743 mmHg 62%
04:00 +17°C° 0 mm 3 mps 743 mmHg 63%
05:00 +17°C° 0 mm 2 mps 743 mmHg 64%
06:00 +17°C° 0 mm 2 mps 744 mmHg 65%
07:00 +19°C° 0 mm 3 mps 743 mmHg 59%
08:00 +21°C° 0 mm 3 mps 743 mmHg 53%
09:00 +23°C° 0 mm 4 mps 743 mmHg 47%
10:00 +25°C° 0 mm 4 mps 743 mmHg 44%
11:00 +26°C° 0 mm 3 mps 743 mmHg 41%
12:00 +27°C° 0 mm 3 mps 743 mmHg 38%
13:00 +28°C° 0 mm 3 mps 743 mmHg 37%
14:00 +28°C° 0 mm 3 mps 743 mmHg 37%
15:00 +29°C° 0 mm 3 mps 742 mmHg 36%
16:00 +28°C° 0 mm 2 mps 742 mmHg 40%
17:00 +27°C° 0 mm 2 mps 742 mmHg 45%
18:00 +27°C° 0 mm 2 mps 742 mmHg 49%
19:00 +25°C° 0 mm 2 mps 742 mmHg 50%
20:00 +24°C° 0 mm 3 mps 742 mmHg 51%
21:00 +21°C° 0 mm 3 mps 742 mmHg 53%
22:00 +21°C° 0 mm 3 mps 742 mmHg 53%
23:00 +20°C° 0 mm 3 mps 742 mmHg 53%

7 August, Saturday

Time Temperature Precipitation Wind Pressure Humidity
00:00 +20°C° 0 mm 4 mps 741 mmHg 53%
01:00 +19°C° 0 mm 3 mps 741 mmHg 52%
02:00 +19°C° 0 mm 3 mps 741 mmHg 51%
03:00 +19°C° 0 mm 3 mps 741 mmHg 51%
04:00 +19°C° 0 mm 3 mps 742 mmHg 52%
05:00 +19°C° 0 mm 3 mps 742 mmHg 52%
06:00 +19°C° 0 mm 3 mps 742 mmHg 53%
07:00 +21°C° 0 mm 4 mps 742 mmHg 49%
08:00 +23°C° 0 mm 4 mps 742 mmHg 45%
09:00 +26°C° 0 mm 4 mps 742 mmHg 40%
10:00 +27°C° 0 mm 4 mps 742 mmHg 37%
11:00 +28°C° 0 mm 4 mps 742 mmHg 34%
12:00 +30°C° 0 mm 3 mps 742 mmHg 31%
13:00 +30°C° 0 mm 3 mps 742 mmHg 30%
14:00 +30°C° 0 mm 3 mps 742 mmHg 30%
15:00 +31°C° 0 mm 3 mps 742 mmHg 29%
16:00 +30°C° 0 mm 3 mps 742 mmHg 34%
17:00 +29°C° 0 mm 3 mps 742 mmHg 39%
18:00 +28°C° 0 mm 2 mps 742 mmHg 43%
19:00 +27°C° 0 mm 3 mps 742 mmHg 45%
20:00 +25°C° 0 mm 3 mps 742 mmHg 46%
21:00 +22°C° 0 mm 3 mps 742 mmHg 47%
22:00 +22°C° 0 mm 3 mps 741 mmHg 48%
23:00 +21°C° 0 mm 3 mps 741 mmHg 48%

8 August, Sunday

Time Temperature Precipitation Wind Pressure Humidity
00:00 +21°C° 0 mm 3 mps 741 mmHg 48%
01:00 +21°C° 0 mm 3 mps 741 mmHg 46%
02:00 +20°C° 0 mm 3 mps 741 mmHg 44%
03:00 +20°C° 0 mm 3 mps 741 mmHg 42%
04:00 +20°C° 0 mm 3 mps 741 mmHg 43%
05:00 +21°C° 0 mm 3 mps 741 mmHg 44%
06:00 +21°C° 0 mm 3 mps 741 mmHg 45%
07:00 +23°C° 0 mm 4 mps 741 mmHg 43%
08:00 +26°C° 0 mm 4 mps 741 mmHg 41%
09:00 +28°C° 0 mm 4 mps 741 mmHg 38%
10:00 +29°C° 0 mm 5 mps 741 mmHg 34%
11:00 +32°C° 0 mm 5 mps 741 mmHg 30%
12:00 +34°C° 0 mm 6 mps 741 mmHg 25%
13:00 +33°C° 0 mm 5 mps 741 mmHg 28%
14:00 +32°C° 0 mm 4 mps 741 mmHg 31%
15:00 +30°C° 0 mm 4 mps 741 mmHg 33%
16:00 +29°C° 0 mm 4 mps 741 mmHg 36%
17:00 +28°C° 0 mm 3 mps 741 mmHg 38%
18:00 +27°C° 0 mm 3 mps 741 mmHg 40%
19:00 +27°C° 0 mm 3 mps 741 mmHg 38%
20:00 +27°C° 0 mm 3 mps 740 mmHg 36%
21:00 +27°C° 0 mm 3 mps 740 mmHg 34%
22:00 +27°C° 0 mm 3 mps 740 mmHg 36%
23:00 +26°C° 0 mm 3 mps 739 mmHg 37%

9 August, Monday

Time Temperature Precipitation Wind Pressure Humidity
00:00 +26°C° 0 mm 3 mps 739 mmHg 38%
01:00 +25°C° 0 mm 3 mps 739 mmHg 40%
02:00 +24°C° 0 mm 3 mps 739 mmHg 42%
03:00 +24°C° 0 mm 3 mps 739 mmHg 44%
04:00 +22°C° 0 mm 3 mps 739 mmHg 47%
05:00 +23°C° 0 mm 2 mps 739 mmHg 51%
06:00 +23°C° 0 mm 2 mps 738 mmHg 54%
07:00 +24°C° 0.1 mm 2 mps 738 mmHg 51%
08:00 +26°C° 0.1 mm 3 mps 738 mmHg 48%
09:00 +27°C° 0.1 mm 3 mps 738 mmHg 45%
10:00 +28°C° 0.5 mm 3 mps 738 mmHg 45%
11:00 +29°C° 0.5 mm 3 mps 738 mmHg 44%
12:00 +29°C° 0.5 mm 3 mps 738 mmHg 44%
13:00 +30°C° 0 mm 2 mps 738 mmHg 42%
14:00 +31°C° 0 mm 2 mps 738 mmHg 41%
15:00 +31°C° 0 mm 2 mps 738 mmHg 39%
16:00 +31°C° 0 mm 2 mps 737 mmHg 43%
17:00 +30°C° 0 mm 2 mps 737 mmHg 46%
18:00 +30°C° 0 mm 2 mps 737 mmHg 50%
19:00 +27°C° 0 mm 3 mps 737 mmHg 57%
20:00 +25°C° 0 mm 4 mps 737 mmHg 65%
21:00 +21°C° 0 mm 4 mps 737 mmHg 72%
22:00 +21°C° 0 mm 4 mps 738 mmHg 75%
23:00 +20°C° 0 mm 4 mps 738 mmHg 78%
Show more

We Need Your Consent

Meteoprog and our Service Providers may store and access personal data such as cookies, device identifiers or other similar technologies on your device and process such data to personalise content and ads, as well as provide social media features and to analyse the traffic.

  • Store and/or access information on your device

    Cookies, device identifiers or other information can be stored or accessed on your device for the purposes indicated above.

  • Personalised ads and content, ad and content measurement, audience insights, and products development

    Ads and content can be personalised based on a profile. More data can be added to better personalise ads and content. Ad and content performance can be measured. Insights about the audience who saw the ads and content can be derived. Such data can be used to develop or improve user’s experience, systems and software.

By clicking ‘I Agree’ you will allow the use of indicated cookies, device identifiers, web beacons or other similar technologies. Your settings can be changed in the browser on your device.

For certain purposes, legitimate interests may be relied on, rather than consent. You can read more about this in our Privacy and Cookie Policy.